User: anonymous   Login
Location: Unspecified
(0.0000°N, 0.0000°E)
Time: 20:41:09
(UTC+00:00)
Language:

DSCS II F-15 - Orbit

View from above orbital plane
View from above orbital plane
View from above satellite
View from above satellite

Ground track
Ground track

The orbit data is extracted from the following two-line orbital elements,

1 20202U 89069A   21136.43325433 -.00000248  00000-0  00000-0 0  9993
2 20202  14.6858 350.2092 0011449 217.3649 343.2268  0.98613904  7489
Epoch (UTC): 16 May 2021 10:23:53
Eccentricity: 0.0011449
inclination: 14.6858°
perigee height: 36208 km
apogee height: 36306 km
right ascension of ascending node: 350.2092°
argument of perigee: 217.3649°
revolutions per day: 0.98613904
mean anomaly at epoch: 343.2268°
orbit number at epoch: 748

The dashed part of the orbit path shows where the satellite is in the earth's shadow,  

DLR